Погода в Дергачах

Россия / Саратовская область     51°14′09″N   48°45′45″E
темп.,
°C
ветер,
м/с
пор.,
м/с
влажн.,
%
обл.,
%
осадки,
мм/ч
давл.,
гПа
погр.,
м
14 августа, вс
вс1401:00+21св47450 0.0 1018113
04:00+19св45500 0.0 101879
07:00+20св47510 0.0 1018170
10:00+27св45370 0.0 1018837
13:00+30св55275 0.0 10172123
16:00+32св452546 0.0 10162563
19:00+30св573165 0.0 1015286
22:00+25св51041100 0.0 1016222
15 августа, пн
пн1501:00+23всв6114999 0.0 1017360
04:00+21всв6115482 0.0 1018281
07:00+20всв61148100 0.0 1019362
10:00+24св673482 0.0 1019830
13:00+28св67225 0.0 10191469
16:00+30св67194 0.0 10181816
19:00+28св58244 0.0 1017265
22:00+22ссв511380 0.0 1018206
16 августа, вт
вт1601:00+21св612460 0.0 1018275
04:00+20всв511490 0.0 1019192
07:00+20всв511480 0.0 1020281
10:00+28в79260 0.0 10201001
13:00+31в78225 0.0 10202145
16:00+32всв781917 0.0 10182311
19:00+29всв69235 0.0 1018329
22:00+23св51132100 0.0 1019177
17 августа, ср
ср1701:00+21всв5103845 0.0 1019161
04:00+20всв5113693 0.0 1018211
07:00+21всв81336100 0.0 1018289
10:00+23всв51135100 0.0 1017320
13:00+27в71127100 0.0 1018685
16:00+28всв51026100 0.0 1016392
19:00+27св5102689 0.0 1015224
22:00+25всв41129100 0.0 1015240
18 августа, чт
чт1801:00+24всв493864 0.0 1015149
04:00+23всв51341100 0.0 1015314
07:00+24в4114299 0.0 1015324
10:00+29в892898 0.0 1016884
13:00+33в662389 0.0 10152091
16:00+34в762191 0.0 10152648
19:00+31всв5926100 0.0 1016270
22:00+27всв81529100 0.0 1017473